EHI
4 4 5 4 2 0 0 0 0 0 0 0 0 0 0 0 1 1 1 3 4 3 2 1 1 1 1 1 1 1 2 3 4 4 4 5 6 4 2 1 0 1 2
5 4 4 5 2 0 0 0 0 0 0 0 0 0 0 0 0 1 1 2 2 2 2 2 2 1 1 0 0 1 2 2 3 2 3 4 4 3 2 1 1 1 2
4 3 3 5 4 2 0 0 0 0 0 0 0 0 0 0 0 1 1 1 1 1 1 2 2 1 0 0 0 0 1 1 1 1 2 2 1 2 3 2 2 2 1
2 1 3 5 6 4 2 0 0 0 0 0 0 0 0 0 0 1 1 0 0 0 1 2 1 0 0 0 0 0 0 0 0 0 0 0 0 1 3 3 3 3 2
1 2 4 7 7 6 3 1 1 1 1 0 0 0 0 0 0 0 0 0 0 0 1 1 0 0 0 0 0 0 1 1 0 0 0 0 1 2 4 4 4 3 3
3 4 7 9 8 6 4 3 2 2 2 1 0 0 0 0 0 0 0 0 0 0 0 0 0 0 0 0 0 0 1 1 1 1 0 0 1 3 5 6 5 4 4
6 7 10 11 10 7 5 4 4 3 2 1 0 0 0 0 0 0 0 0 0 0 0 0 0 0 0 0 0 0 1 2 2 1 0 1 2 3 5 6 5 5 5
8 10 11 11 9 6 6 6 4 2 1 0 0 0 0 0 0 0 0 0 0 0 0 0 0 0 0 0 0 0 1 2 1 0 0 1 2 3 4 6 6 5 5
7 9 10 9 7 6 7 6 4 2 0 0 1 1 2 1 1 0 1 1 0 0 1 1 1 1 1 1 1 1 3 3 1 0 0 1 3 3 4 6 7 6 5
4 6 8 7 6 5 6 6 4 2 1 1 3 3 3 2 2 1 1 2 1 0 1 3 3 3 3 3 4 4 5 4 2 1 1 3 5 4 4 6 7 7 5
2 3 5 6 5 4 4 5 5 3 2 3 4 5 4 3 2 1 2 3 3 3 4 6 7 7 6 6 7 8 6 4 2 2 3 6 7 5 5 6 6 5 4
2 2 2 4 4 3 3 5 5 4 4 3 3 4 4 2 1 1 3 6 7 7 8 9 9 8 6 6 7 8 5 3 2 1 4 8 8 6 4 5 5 4 2
2 2 2 3 5 6 5 4 3 4 4 4 3 4 3 1 1 2 4 6 8 9 10 10 8 5 3 3 5 4 3 1 1 1 4 8 9 6 4 4 4 3 2
3 3 4 5 8 11 10 5 3 2 3 3 4 5 4 2 1 2 5 6 7 8 9 8 6 3 2 2 3 2 1 0 1 2 5 9 10 8 7 6 4 3 3
3 4 5 8 12 14 14 10 4 2 3 4 5 5 4 4 4 5 8 10 9 7 8 8 8 5 3 2 1 1 0 0 2 4 7 10 10 10 10 9 7 5 4
4 5 7 10 12 13 12 11 7 3 4 5 5 5 5 6 9 11 13 14 11 9 9 9 9 7 5 3 2 1 0 1 3 6 8 9 10 11 11 11 10 8 7
7 8 8 10 12 11 9 8 6 4 3 4 5 6 5 7 12 15 15 14 11 9 8 8 8 7 5 5 4 3 3 3 5 6 8 9 9 10 11 11 10 10 10
12 13 11 11 15 14 11 8 5 3 3 3 5 8 7 7 10 13 12 12 10 7 5 4 5 4 5 5 6 6 6 8 8 6 7 9 10 10 11 12 11 11 11
21 20 18 18 21 21 17 12 8 6 4 4 8 12 11 9 8 9 9 9 8 5 3 2 4 5 5 5 5 6 7 10 10 8 6 8 11 11 12 15 15 13 12
28 28 26 27 28 26 22 16 12 9 8 9 13 17 15 12 10 9 9 8 7 5 3 3 7 9 8 5 5 5 5 7 10 10 8 7 8 9 11 16 18 15 12
36 36 34 33 33 29 24 20 15 12 12 13 17 19 16 11 11 10 8 8 8 6 4 5 9 11 8 5 5 5 5 5 7 11 10 6 4 4 7 15 21 20 16
43 42 39 36 34 30 26 22 18 15 14 14 17 19 15 10 10 10 10 9 8 7 6 7 10 10 7 6 7 6 4 3 5 9 11 8 6 6 7 13 22 26 23
45 44 41 39 37 34 29 24 20 17 15 14 17 20 17 11 9 11 13 12 9 7 7 9 11 10 8 7 7 5 3 2 3 6 9 10 11 11 9 11 19 26 29
41 43 46 48 46 41 32 25 20 18 16 16 20 24 21 14 12 13 14 13 10 9 8 8 10 10 10 9 8 6 3 2 3 5 7 10 12 13 12 12 16 24 30
36 41 51 56 54 47 37 28 23 20 18 20 25 28 25 19 16 16 15 13 14 14 12 9 9 11 13 13 12 9 4 3 4 5 5 7 10 13 16 18 19 23 28
33 39 50 58 57 50 40 31 25 22 20 23 29 30 27 23 21 18 15 15 17 18 16 12 11 12 14 16 17 12 5 2 4 4 4 4 8 14 19 22 24 25 27
Wind_Speed
9 10 12 12 11 11 11 11 11 11 12 11 11 11 10 10 11 13 14 15 16 16 16 16 17 17 17 17 17 16 15 15 15 15 14 13 12 11 11 11 11 10 12
11 11 12 11 11 11 11 11 11 11 11 12 11 10 11 11 12 13 14 15 16 16 16 17 17 17 17 17 17 16 15 14 14 14 14 13 12 11 10 10 11 9 12
12 11 11 11 11 11 11 11 11 11 11 12 11 12 12 13 13 14 14 16 16 16 16 16 17 17 17 16 16 15 14 13 12 13 13 9 9 11 11 12 12 12 12
12 11 10 12 11 11 11 11 11 11 12 12 12 13 13 13 14 15 16 16 15 16 16 16 17 17 16 15 14 13 13 12 11 11 7 7 8 11 11 11 11 11 11
12 11 11 12 11 11 11 10 11 11 11 12 12 12 13 14 15 15 15 15 15 16 15 15 15 15 15 14 13 12 11 10 9 7 7 7 6 10 11 11 11 10 11
12 12 12 12 11 11 10 10 10 11 11 11 12 12 13 14 15 15 15 15 15 15 15 14 14 14 13 13 11 10 9 8 6 6 7 7 7 10 11 10 10 10 10
12 12 12 12 11 11 10 10 10 10 10 10 11 12 14 14 14 14 14 15 15 15 14 13 13 13 12 11 9 8 7 5 3 6 7 7 7 10 10 10 9 9 9
12 12 12 12 12 10 10 10 10 9 10 11 12 12 13 14 13 13 13 13 14 13 13 12 11 11 10 9 7 5 4 3 5 8 8 7 9 9 10 9 9 8 8
11 12 10 11 10 10 9 9 9 9 10 11 12 12 13 13 13 12 12 13 12 12 11 11 10 10 8 7 6 4 4 3 2 6 9 7 9 10 10 9 9 8 8
9 10 10 10 9 8 8 9 9 10 11 11 12 12 12 11 12 12 11 11 11 11 10 9 9 8 7 6 6 5 4 3 3 7 6 8 11 11 10 10 9 9 8
8 8 8 9 8 7 8 9 9 9 9 9 9 10 9 6 7 8 10 11 11 10 10 9 9 8 7 6 7 6 5 2 3 5 6 11 12 11 10 9 9 8 8
7 8 7 7 6 5 6 7 6 6 6 4 4 5 4 3 4 7 9 10 10 10 10 10 9 9 7 5 6 7 3 3 3 5 7 12 11 11 10 9 8 8 8
6 7 8 7 5 4 4 5 3 3 4 4 4 4 3 3 4 4 4 5 6 8 6 8 8 5 5 3 3 3 2 2 3 5 8 12 11 10 10 9 8 8 8
6 6 7 7 5 4 4 3 3 3 3 3 3 4 3 2 2 2 2 3 3 3 3 3 3 3 3 3 3 3 2 2 3 4 7 12 11 10 10 9 8 8 7
6 6 7 7 5 4 3 2 4 3 3 4 3 3 2 2 2 2 1 1 2 2 3 2 2 2 2 2 2 2 2 3 4 5 6 11 11 10 10 9 9 8 8
6 6 7 7 6 4 3 1 2 3 3 3 3 4 2 2 2 1 1 1 1 2 2 2 2 2 2 1 1 2 2 3 4 5 6 7 10 10 10 9 9 9 8
7 6 6 6 6 4 3 2 2 2 3 3 3 4 2 2 2 2 1 1 1 2 2 2 2 2 2 2 2 2 2 2 3 3 6 5 6 9 10 10 9 9 9
7 6 4 5 7 4 3 2 2 2 3 3 3 3 3 2 2 1 1 1 1 2 1 2 1 1 1 1 1 2 2 3 3 3 4 5 5 5 8 10 9 9 9
7 6 4 4 6 5 4 2 2 2 2 2 2 3 2 2 2 1 1 1 1 2 1 1 2 1 1 1 1 2 2 2 3 3 4 5 5 5 6 9 10 9 9
8 7 5 4 4 4 4 2 1 2 2 2 2 3 2 1 2 1 1 1 1 2 2 2 1 0 0 0 1 1 1 2 3 3 4 3 4 5 6 7 6 7 10
8 7 6 5 5 3 3 3 2 2 2 2 3 4 3 2 2 1 1 1 1 1 2 2 1 1 1 1 0 0 1 2 2 3 2 2 3 3 3 5 5 4 5
9 8 7 6 6 5 3 2 2 2 2 2 2 3 3 2 2 2 1 0 1 1 1 1 1 1 1 1 1 0 0 0 1 2 3 3 3 3 3 4 4 4 3
10 9 8 6 6 6 4 3 2 2 1 1 2 2 3 3 2 1 1 1 1 1 2 2 2 2 1 0 0 1 1 0 0 0 2 2 2 2 2 2 4 4 4
11 10 8 7 6 6 5 4 3 3 2 2 2 2 3 3 2 2 2 1 1 0 1 2 2 1 1 1 1 1 0 1 1 0 1 1 2 2 2 2 2 3 3
11 11 9 8 7 6 5 4 4 3 2 2 2 3 3 2 2 2 2 1 1 1 0 0 0 0 0 1 1 0 1 0 1 1 1 1 1 2 3 2 1 1 2
10 10 10 9 7 6 5 4 4 3 2 2 2 3 2 2 2 2 2 1 1 1 1 1 1 1 0 0 1 1 0 0 0 0 1 2 2 2 2 2 2 2 2
Wind_Direction
83 83 78 74 72 70 69 71 72 71 72 75 80 81 86 97 105 109 110 113 114 115 115 113 114 114 117 119 121 121 121 120 120 119 118 116 114 115 116 119 114 103 107
91 90 84 76 73 71 70 74 75 73 72 75 80 83 84 94 104 110 111 113 113 114 113 114 113 112 115 117 118 120 121 124 125 127 126 120 116 114 113 112 111 110 114
95 94 87 78 75 73 74 76 76 76 75 77 79 84 86 93 99 107 109 110 111 112 113 114 114 115 115 117 120 123 125 131 137 140 136 124 117 115 112 110 111 115 115
96 93 87 87 80 76 76 77 78 78 78 80 82 87 89 95 98 102 107 108 108 110 113 114 115 116 116 119 123 129 133 141 147 151 140 123 121 119 116 116 119 119 118
96 95 95 93 86 82 80 79 78 79 82 84 87 90 92 96 101 104 106 108 108 109 113 115 117 117 119 123 127 132 138 145 153 147 117 112 112 125 124 124 124 125 124
104 100 101 99 95 90 85 83 82 81 84 88 90 91 96 99 102 105 107 108 109 109 110 111 115 117 120 125 131 137 145 152 164 138 122 120 121 131 130 130 130 131 132
106 106 109 108 103 97 93 88 86 86 88 92 95 94 97 100 102 105 107 108 108 108 110 112 113 117 120 126 133 143 149 157 176 122 111 110 118 128 132 135 137 136 137
110 110 114 116 108 101 99 95 92 93 96 100 105 103 101 100 103 106 109 109 110 112 114 117 119 121 123 130 141 150 162 190 146 117 111 113 128 136 138 141 142 142 142
111 115 123 125 119 114 110 105 101 102 104 107 111 109 107 107 107 108 113 115 118 119 122 125 128 130 136 146 160 176 188 223 151 128 124 124 137 143 146 146 147 147 146
111 116 123 124 127 126 123 123 116 114 113 115 117 115 114 115 118 120 121 121 127 131 134 138 143 147 154 166 182 200 222 250 181 128 121 132 140 144 146 148 150 149 153
105 109 116 116 126 132 127 131 135 128 122 124 124 128 133 130 127 127 121 134 140 146 150 155 160 164 172 187 200 214 231 224 141 118 120 138 145 146 150 154 159 159 161
112 113 108 109 111 114 110 121 135 128 133 132 128 142 138 116 114 119 133 147 154 160 166 172 177 181 192 195 201 213 224 190 141 122 128 145 147 150 156 160 165 168 169
118 109 108 102 99 97 100 119 116 115 125 123 119 113 102 113 124 128 141 152 167 175 181 173 187 199 197 193 184 191 195 152 118 118 137 148 150 155 160 165 169 172 173
120 108 106 105 90 69 69 93 112 113 112 110 106 94 99 94 101 113 135 152 168 171 164 170 176 182 176 171 171 176 156 126 112 114 143 151 155 162 166 170 175 177 178
122 113 102 100 93 85 63 62 96 95 100 104 98 91 83 94 83 82 73 87 144 140 141 151 148 165 157 153 163 139 115 115 124 126 140 160 164 168 173 176 179 184 187
127 116 114 114 107 99 96 72 96 110 105 103 102 99 96 95 97 98 107 102 122 125 136 148 152 143 131 128 147 150 150 139 136 139 143 164 172 175 179 182 184 188 191
129 121 125 127 123 125 121 141 119 118 117 114 111 112 111 104 109 111 128 142 126 134 132 129 120 133 150 163 156 152 137 132 134 145 152 162 172 181 184 186 190 193 196
133 130 147 139 132 135 130 136 115 108 109 112 114 121 124 113 115 123 134 118 125 128 117 135 126 120 139 148 157 174 159 153 151 161 167 172 171 177 187 194 196 199 203
138 142 150 128 135 143 143 144 133 108 101 115 121 121 128 134 125 120 101 86 131 129 136 135 111 105 160 133 179 178 182 165 160 176 178 181 174 171 173 187 195 199 204
144 145 149 146 139 145 145 149 144 124 140 147 131 128 135 145 123 125 124 90 76 80 87 91 100 132 186 187 244 164 187 176 172 174 181 180 175 178 178 173 185 201 209
148 148 151 158 149 155 156 160 156 156 171 155 154 141 145 151 130 124 77 94 105 111 124 140 142 175 169 144 149 243 217 194 179 167 173 180 178 177 177 171 177 187 197
153 152 156 162 160 169 169 171 170 156 167 158 135 134 148 155 157 164 148 175 128 141 140 160 144 168 216 164 159 149 250 303 291 206 179 188 191 184 189 191 183 187 194
159 160 167 168 163 175 170 172 174 146 165 148 142 151 165 161 162 97 149 194 190 191 169 187 180 187 201 236 160 163 158 180 269 267 209 184 175 185 205 202 189 187 199
166 166 164 161 160 165 170 181 180 168 178 176 161 153 160 170 169 172 193 194 203 200 169 201 165 207 198 224 244 217 171 119 120 320 284 194 188 202 214 232 203 184 183
170 167 163 159 160 163 176 187 194 191 180 166 151 145 163 175 180 178 170 167 186 159 164 262 145 220 241 267 251 231 223 206 193 170 251 268 237 208 199 206 210 188 173
165 162 162 156 159 163 174 187 191 208 190 172 166 159 172 170 179 176 155 159 160 169 194 208 198 181 226 278 306 300 232 99 242 240 255 259 263 242 201 190 190 184 181